User: anonymous
Location: Fort Wayne
(41.1310°N, 85.1290°W)
Time: 11:33:22
(UTC-04:00)
Language:

Tiros 1 despin weight - Orbit

View from above orbital plane
View from above orbital plane
View from above satellite
View from above satellite

Ground track
Ground track

The orbit data is extracted from the following two-line orbital elements,

1 00115U 60002D   14211.26382628  .00000496  00000-0  91561-4 0  4216
2 00115 048.1660 157.0169 0036330 147.7133 326.2607 14.80630646894021
Epoch (UTC): 30 July 2014 06:19:54
Eccentricity: 0.0036330
inclination: 48.1660°
perigee height: 602 km
apogee height: 653 km
right ascension of ascending node: 157.0169°
argument of perigee: 147.7133°
revolutions per day: 14.80630646
mean anomaly at epoch: 326.2607°
orbit number at epoch: 89402

The dashed part of the orbit path shows where the satellite is in the earth's shadow,  

DLR